Time,TemperatureF,DewpointF,PressureIn,WindDirection,WindDirectionDegrees,WindSpeedMPH,WindSpeedGustMPH,Humidity,HourlyPrecipIn,Conditions,Clouds,dailyrainin,SoftwareType,DateUTC
2013-09-12 00:00:00,73.1,70.6,29.88,East,83,0.0,0.0,92,0.00,,CLR,0.00,VWS V14.01,2013-09-12 05:00:00,
2013-09-12 00:02:00,73.0,70.5,29.88,East,83,0.0,0.0,92,0.00,,CLR,0.00,VWS V14.01,2013-09-12 05:02:00,
2013-09-12 00:07:00,73.0,70.5,29.87,East,84,0.0,0.0,92,0.00,,CLR,0.00,VWS V14.01,2013-09-12 05:07:00,
2013-09-12 00:12:00,72.9,70.4,29.87,East,84,0.0,0.0,92,0.00,,CLR,0.00,VWS V14.01,2013-09-12 05:12:00,
2013-09-12 00:17:00,72.8,70.3,29.87,East,84,0.0,0.0,92,0.00,,CLR,0.00,VWS V14.01,2013-09-12 05:17:00,
2013-09-12 00:22:00,72.8,70.3,29.87,East,84,0.0,0.0,92,0.00,,CLR,0.00,VWS V14.01,2013-09-12 05:22:00,
2013-09-12 00:27:00,72.7,70.2,29.87,East,84,0.0,0.0,92,0.00,,CLR,0.00,VWS V14.01,2013-09-12 05:27:00,
2013-09-12 00:30:00,72.7,70.2,29.87,East,83,0.0,0.0,92,0.00,,CLR,0.00,VWS V14.01,2013-09-12 05:30:00,
2013-09-12 00:33:00,72.6,70.2,29.86,East,84,0.0,0.0,92,0.00,,CLR,0.00,VWS V14.01,2013-09-12 05:33:00,
2013-09-12 00:38:00,72.5,70.1,29.86,East,84,0.0,0.0,92,0.00,,CLR,0.00,VWS V14.01,2013-09-12 05:38:00,
2013-09-12 00:43:00,72.5,70.1,29.86,East,84,0.0,0.0,92,0.00,,CLR,0.00,VWS V14.01,2013-09-12 05:43:00,
2013-09-12 00:48:00,72.4,69.9,29.86,East,83,0.0,0.0,92,0.00,,CLR,0.00,VWS V14.01,2013-09-12 05:48:00,
2013-09-12 00:53:00,72.3,70.2,29.87,East,83,0.0,0.0,93,0.00,,CLR,0.00,VWS V14.01,2013-09-12 05:53:00,
2013-09-12 00:58:00,72.2,70.1,29.86,East,84,0.0,0.0,93,0.00,,CLR,0.00,VWS V14.01,2013-09-12 05:58:00,
2013-09-12 01:00:00,72.2,70.1,29.86,East,83,0.0,0.0,93,0.00,,CLR,0.00,VWS V14.01,2013-09-12 06:00:00,
2013-09-12 01:03:00,72.1,70.0,29.86,East,84,0.0,0.0,93,0.00,,CLR,0.00,VWS V14.01,2013-09-12 06:03:00,
2013-09-12 01:08:00,72.1,70.0,29.86,East,84,0.0,0.0,93,0.00,,CLR,0.00,VWS V14.01,2013-09-12 06:08:00,
2013-09-12 01:13:00,72.0,69.9,29.86,East,83,0.0,0.0,93,0.00,,CLR,0.00,VWS V14.01,2013-09-12 06:13:00,
2013-09-12 01:18:00,71.9,69.8,29.86,East,83,0.0,0.0,93,0.00,,CLR,0.00,VWS V14.01,2013-09-12 06:18:00,
2013-09-12 01:23:00,71.9,69.8,29.86,East,83,0.0,0.0,93,0.00,,CLR,0.00,VWS V14.01,2013-09-12 06:23:00,
2013-09-12 01:28:00,71.9,69.8,29.86,East,83,0.0,0.0,93,0.00,,CLR,0.00,VWS V14.01,2013-09-12 06:28:00,
2013-09-12 01:30:00,71.9,69.8,29.86,East,84,0.0,0.0,93,0.00,,CLR,0.00,VWS V14.01,2013-09-12 06:30:00,
2013-09-12 01:33:00,71.8,70.0,29.86,East,83,0.0,0.0,94,0.00,,CLR,0.00,VWS V14.01,2013-09-12 06:33:00,
2013-09-12 01:39:00,71.8,70.0,29.86,East,84,0.0,0.0,94,0.00,,CLR,0.00,VWS V14.01,2013-09-12 06:39:00,
2013-09-12 01:44:00,71.8,70.0,29.86,East,83,0.0,0.0,94,0.00,,,0.00,VWS V14.01,2013-09-12 06:44:00,
2013-09-12 01:49:00,71.8,69.7,29.86,East,84,0.0,0.0,93,0.00,,,0.00,VWS V14.01,2013-09-12 06:49:00,
2013-09-12 01:54:00,71.7,69.6,29.86,East,84,0.0,0.0,93,0.00,,,0.00,VWS V14.01,2013-09-12 06:54:00,
2013-09-12 01:59:00,71.7,69.6,29.85,East,83,0.0,0.0,93,0.00,,,0.00,VWS V14.01,2013-09-12 06:59:00,
2013-09-12 02:00:00,71.6,69.5,29.85,East,83,0.0,0.0,93,0.00,,CLR,0.00,VWS V14.01,2013-09-12 07:00:00,
2013-09-12 02:04:00,71.6,69.5,29.85,East,84,0.0,0.0,93,0.00,,,0.00,VWS V14.01,2013-09-12 07:04:00,
2013-09-12 02:09:00,71.6,69.2,29.85,East,83,0.0,0.0,92,0.00,,,0.00,VWS V14.01,2013-09-12 07:09:00,
2013-09-12 02:14:00,71.5,69.1,29.85,East,83,0.0,0.0,92,0.00,,,0.00,VWS V14.01,2013-09-12 07:14:00,
2013-09-12 02:19:00,71.5,69.1,29.85,East,84,0.0,0.0,92,0.00,,,0.00,VWS V14.01,2013-09-12 07:19:00,
2013-09-12 02:24:00,71.6,68.8,29.85,East,84,0.0,0.0,91,0.00,,,0.00,VWS V14.01,2013-09-12 07:24:00,
2013-09-12 02:30:00,71.7,68.9,29.85,East,84,0.0,0.0,91,0.00,,,0.00,VWS V14.01,2013-09-12 07:30:00,
2013-09-12 02:35:00,71.7,68.9,29.85,East,83,0.0,0.0,91,0.00,,,0.00,VWS V14.01,2013-09-12 07:35:00,
2013-09-12 02:40:00,71.6,68.8,29.85,East,83,0.0,0.0,91,0.00,,,0.00,VWS V14.01,2013-09-12 07:40:00,
2013-09-12 02:45:00,71.5,68.7,29.85,East,83,0.0,0.0,91,0.00,,,0.00,VWS V14.01,2013-09-12 07:45:00,
2013-09-12 02:50:00,71.4,68.6,29.85,East,83,0.0,0.0,91,0.00,,,0.00,VWS V14.01,2013-09-12 07:50:00,
2013-09-12 02:55:00,71.3,68.9,29.85,East,83,0.0,0.0,92,0.00,,,0.00,VWS V14.01,2013-09-12 07:55:00,
2013-09-12 03:00:00,71.2,68.4,29.85,East,83,0.0,0.0,91,0.00,,,0.00,VWS V14.01,2013-09-12 08:00:00,
2013-09-12 03:05:00,71.1,68.7,29.84,East,84,0.0,0.0,92,0.00,,,0.00,VWS V14.01,2013-09-12 08:05:00,
2013-09-12 03:10:00,71.0,68.6,29.84,East,84,0.0,0.0,92,0.00,,,0.00,VWS V14.01,2013-09-12 08:10:00,
2013-09-12 03:15:00,70.9,68.5,29.84,East,83,0.0,0.0,92,0.00,,,0.00,VWS V14.01,2013-09-12 08:15:00,
2013-09-12 03:20:00,70.9,68.8,29.84,East,84,0.0,0.0,93,0.00,,,0.00,VWS V14.01,2013-09-12 08:20:00,
2013-09-12 03:25:00,70.9,68.8,29.84,East,84,0.0,0.0,93,0.00,,,0.00,VWS V14.01,2013-09-12 08:25:00,
2013-09-12 03:30:00,70.8,68.7,29.84,East,84,0.0,0.0,93,0.00,,CLR,0.00,VWS V14.01,2013-09-12 08:30:00,
2013-09-12 03:31:00,70.8,68.7,29.84,East,83,0.0,0.0,93,0.00,,,0.00,VWS V14.01,2013-09-12 08:31:00,
2013-09-12 03:36:00,70.7,68.6,29.84,East,84,0.0,0.0,93,0.00,,,0.00,VWS V14.01,2013-09-12 08:36:00,
2013-09-12 03:41:00,70.7,68.6,29.84,East,84,0.0,0.0,93,0.00,,,0.00,VWS V14.01,2013-09-12 08:41:00,
2013-09-12 03:46:00,70.6,68.5,29.84,East,83,0.0,0.0,93,0.00,,,0.00,VWS V14.01,2013-09-12 08:46:00,
2013-09-12 03:51:00,70.4,68.3,29.84,East,84,0.0,0.0,93,0.00,,,0.00,VWS V14.01,2013-09-12 08:51:00,
2013-09-12 03:56:00,70.3,68.2,29.84,East,83,0.0,0.0,93,0.00,,,0.00,VWS V14.01,2013-09-12 08:56:00,
2013-09-12 04:00:00,70.3,68.2,29.84,East,83,0.0,0.0,93,0.00,,CLR,0.00,VWS V14.01,2013-09-12 09:00:00,
2013-09-12 04:01:00,70.2,68.1,29.84,East,83,0.0,0.0,93,0.00,,,0.00,VWS V14.01,2013-09-12 09:01:00,
2013-09-12 04:06:00,70.2,68.4,29.84,East,84,0.0,0.0,94,0.00,,,0.00,VWS V14.01,2013-09-12 09:06:00,
2013-09-12 04:11:00,70.1,68.3,29.84,East,83,0.0,0.0,94,0.00,,,0.00,VWS V14.01,2013-09-12 09:11:00,
2013-09-12 04:16:00,70.1,68.3,29.84,East,84,0.0,0.0,94,0.00,,,0.00,VWS V14.01,2013-09-12 09:16:00,
2013-09-12 04:21:00,70.1,68.3,29.84,East,83,0.0,0.0,94,0.00,,,0.00,VWS V14.01,2013-09-12 09:21:00,
2013-09-12 04:26:00,70.1,68.6,29.84,East,83,0.0,0.0,95,0.00,,,0.00,VWS V14.01,2013-09-12 09:26:00,
2013-09-12 04:30:00,70.1,68.6,29.84,East,83,0.0,0.0,95,0.00,,CLR,0.00,VWS V14.01,2013-09-12 09:30:00,
2013-09-12 04:31:00,70.1,68.6,29.84,East,84,0.0,0.0,95,0.00,,,0.00,VWS V14.01,2013-09-12 09:31:00,
2013-09-12 04:37:00,70.1,68.3,29.84,East,83,0.0,0.0,94,0.00,,,0.00,VWS V14.01,2013-09-12 09:37:00,
2013-09-12 04:42:00,70.0,68.2,29.84,East,83,0.0,0.0,94,0.00,,,0.00,VWS V14.01,2013-09-12 09:42:00,
2013-09-12 04:47:00,69.9,68.1,29.84,East,84,0.0,0.0,94,0.00,,,0.00,VWS V14.01,2013-09-12 09:47:00,
2013-09-12 04:52:00,70.0,68.2,29.84,East,83,0.0,0.0,94,0.00,,,0.00,VWS V14.01,2013-09-12 09:52:00,
2013-09-12 04:57:00,70.1,68.6,29.84,East,83,0.0,0.0,95,0.00,,,0.00,VWS V14.01,2013-09-12 09:57:00,
2013-09-12 05:00:00,70.1,68.6,29.84,East,83,0.0,0.0,95,0.00,,CLR,0.00,VWS V14.01,2013-09-12 10:00:00,
2013-09-12 05:02:00,70.2,68.7,29.84,East,83,0.0,0.0,95,0.00,,,0.00,VWS V14.01,2013-09-12 10:02:00,
2013-09-12 05:07:00,70.3,68.5,29.84,East,84,0.0,0.0,94,0.00,,,0.00,VWS V14.01,2013-09-12 10:07:00,
2013-09-12 05:12:00,70.4,68.6,29.84,East,84,0.0,0.0,94,0.00,,,0.00,VWS V14.01,2013-09-12 10:12:00,
2013-09-12 05:17:00,70.5,68.7,29.84,East,83,0.0,0.0,94,0.00,,,0.00,VWS V14.01,2013-09-12 10:17:00,
2013-09-12 05:22:00,70.6,68.8,29.85,East,84,0.0,0.0,94,0.00,,,0.00,VWS V14.01,2013-09-12 10:22:00,
2013-09-12 05:27:00,70.6,68.5,29.85,East,83,0.0,0.0,93,0.00,,,0.00,VWS V14.01,2013-09-12 10:27:00,
2013-09-12 05:30:00,70.7,68.6,29.85,East,83,0.0,0.0,93,0.00,,CLR,0.00,VWS V14.01,2013-09-12 10:30:00,
2013-09-12 05:32:00,70.7,68.6,29.85,East,84,0.0,0.0,93,0.00,,,0.00,VWS V14.01,2013-09-12 10:32:00,
2013-09-12 05:38:00,70.6,68.5,29.85,East,83,0.0,0.0,93,0.00,,,0.00,VWS V14.01,2013-09-12 10:38:00,
2013-09-12 05:43:00,70.6,68.2,29.85,East,84,0.0,0.0,92,0.00,,,0.00,VWS V14.01,2013-09-12 10:43:00,
2013-09-12 05:48:00,70.5,68.1,29.85,East,83,0.0,0.0,92,0.00,,,0.00,VWS V14.01,2013-09-12 10:48:00,
2013-09-12 05:53:00,70.4,68.0,29.85,East,83,0.0,0.0,92,0.00,,,0.00,VWS V14.01,2013-09-12 10:53:00,
2013-09-12 05:58:00,70.3,68.2,29.85,East,84,0.0,0.0,93,0.00,,,0.00,VWS V14.01,2013-09-12 10:58:00,
2013-09-12 06:00:00,70.3,68.2,29.85,East,83,0.0,0.0,93,0.00,,CLR,0.00,VWS V14.01,2013-09-12 11:00:00,
2013-09-12 06:03:00,70.2,68.1,29.85,East,84,0.0,0.0,93,0.00,,,0.00,VWS V14.01,2013-09-12 11:03:00,
2013-09-12 06:08:00,70.1,68.0,29.85,East,83,0.0,0.0,93,0.00,,,0.00,VWS V14.01,2013-09-12 11:08:00,
2013-09-12 06:13:00,70.0,67.9,29.85,East,83,0.0,0.0,93,0.00,,,0.00,VWS V14.01,2013-09-12 11:13:00,
2013-09-12 06:18:00,69.9,67.8,29.85,East,84,0.0,0.0,93,0.00,,,0.00,VWS V14.01,2013-09-12 11:18:00,
2013-09-12 06:23:00,69.8,67.7,29.86,East,83,0.0,0.0,93,0.00,,,0.00,VWS V14.01,2013-09-12 11:23:00,
2013-09-12 06:28:00,69.7,67.6,29.86,East,84,0.0,0.0,93,0.00,,,0.00,VWS V14.01,2013-09-12 11:28:00,
2013-09-12 06:30:00,69.7,67.6,29.86,East,83,0.0,0.0,93,0.00,,CLR,0.00,VWS V14.01,2013-09-12 11:30:00,
2013-09-12 06:33:00,69.6,67.5,29.86,East,84,0.0,0.0,93,0.00,,,0.00,VWS V14.01,2013-09-12 11:33:00,
2013-09-12 06:38:00,69.5,67.4,29.86,East,83,0.0,0.0,93,0.00,,,0.00,VWS V14.01,2013-09-12 11:38:00,
2013-09-12 06:44:00,69.4,67.3,29.86,East,83,0.0,0.0,93,0.00,,,0.00,VWS V14.01,2013-09-12 11:44:00,
2013-09-12 06:49:00,69.4,67.6,29.86,East,84,0.0,0.0,94,0.00,,,0.00,VWS V14.01,2013-09-12 11:49:00,
2013-09-12 06:54:00,69.3,67.5,29.86,East,84,0.0,0.0,94,0.00,,,0.00,VWS V14.01,2013-09-12 11:54:00,
2013-09-12 06:59:00,69.2,67.4,29.86,East,84,0.0,0.0,94,0.00,,,0.00,VWS V14.01,2013-09-12 11:59:00,
2013-09-12 07:00:00,69.2,67.4,29.86,East,83,0.0,0.0,94,0.00,,CLR,0.00,VWS V14.01,2013-09-12 12:00:00,
2013-09-12 07:04:00,69.3,67.5,29.86,East,84,0.0,0.0,94,0.00,,,0.00,VWS V14.01,2013-09-12 12:04:00,
2013-09-12 07:09:00,69.3,67.5,29.86,East,84,0.0,0.0,94,0.00,,,0.00,VWS V14.01,2013-09-12 12:09:00,
2013-09-12 07:14:00,69.3,67.5,29.86,East,84,0.0,0.0,94,0.00,,,0.00,VWS V14.01,2013-09-12 12:14:00,
2013-09-12 07:19:00,69.3,67.5,29.86,East,83,0.0,0.0,94,0.00,,,0.00,VWS V14.01,2013-09-12 12:19:00,
2013-09-12 07:24:00,69.3,67.5,29.87,East,83,0.0,0.0,94,0.00,,,0.00,VWS V14.01,2013-09-12 12:24:00,
2013-09-12 07:29:00,69.3,67.5,29.87,East,84,0.0,0.0,94,0.00,,,0.00,VWS V14.01,2013-09-12 12:29:00,
2013-09-12 07:30:00,69.3,67.5,29.87,East,83,0.0,0.0,94,0.00,,CLR,0.00,VWS V14.01,2013-09-12 12:30:00,
2013-09-12 07:34:00,69.3,67.5,29.87,East,84,0.0,0.0,94,0.00,,,0.00,VWS V14.01,2013-09-12 12:34:00,
2013-09-12 07:39:00,69.4,67.6,29.87,East,84,0.0,0.0,94,0.00,,,0.00,VWS V14.01,2013-09-12 12:39:00,
2013-09-12 07:45:00,69.4,67.9,29.87,East,84,0.0,0.0,95,0.00,,,0.00,VWS V14.01,2013-09-12 12:45:00,
2013-09-12 07:50:00,69.6,68.1,29.87,East,84,0.0,0.0,95,0.00,,,0.00,VWS V14.01,2013-09-12 12:50:00,
2013-09-12 07:55:00,69.8,68.3,29.87,East,84,0.0,0.0,95,0.00,,,0.00,VWS V14.01,2013-09-12 12:55:00,
2013-09-12 08:00:00,70.0,68.5,29.87,East,84,0.0,0.0,95,0.00,,,0.00,VWS V14.01,2013-09-12 13:00:00,
2013-09-12 08:05:00,70.3,68.8,29.87,East,84,0.0,0.0,95,0.00,,,0.00,VWS V14.01,2013-09-12 13:05:00,
2013-09-12 08:10:00,70.6,68.8,29.87,East,84,0.0,0.0,94,0.00,,,0.00,VWS V14.01,2013-09-12 13:10:00,
2013-09-12 08:15:00,70.8,69.0,29.87,East,84,0.0,0.0,94,0.00,,,0.00,VWS V14.01,2013-09-12 13:15:00,
2013-09-12 08:20:00,71.2,69.4,29.87,East,84,0.0,0.0,94,0.00,,,0.00,VWS V14.01,2013-09-12 13:20:00,
2013-09-12 08:25:00,71.6,69.5,29.87,East,84,0.0,0.0,93,0.00,,,0.00,VWS V14.01,2013-09-12 13:25:00,
2013-09-12 08:30:00,72.1,70.0,29.88,East,84,0.0,1.0,93,0.00,,,0.00,VWS V14.01,2013-09-12 13:30:00,
2013-09-12 08:35:00,72.6,69.8,29.88,East,84,0.0,1.0,91,0.00,,,0.00,VWS V14.01,2013-09-12 13:35:00,
2013-09-12 08:40:00,73.2,70.4,29.88,NE,39,0.0,1.0,91,0.00,,,0.00,VWS V14.01,2013-09-12 13:40:00,
2013-09-12 08:45:00,73.6,70.5,29.87,NE,39,0.0,1.0,90,0.00,,,0.00,VWS V14.01,2013-09-12 13:45:00,
2013-09-12 08:51:00,74.1,70.7,29.87,NE,38,0.0,1.0,89,0.00,,,0.00,VWS V14.01,2013-09-12 13:51:00,
2013-09-12 08:56:00,74.6,70.8,29.87,NW,322,0.0,1.0,88,0.00,,,0.00,VWS V14.01,2013-09-12 13:56:00,
2013-09-12 09:00:00,74.8,70.7,29.87,North,5,0.0,2.0,87,0.00,,CLR,0.00,VWS V14.01,2013-09-12 14:00:00,
2013-09-12 09:01:00,74.9,70.8,29.87,North,5,0.0,0.0,87,0.00,,,0.00,VWS V14.01,2013-09-12 14:01:00,
2013-09-12 09:06:00,75.5,71.0,29.87,North,5,0.0,1.0,86,0.00,,,0.00,VWS V14.01,2013-09-12 14:06:00,
2013-09-12 09:11:00,76.0,71.2,29.87,North,355,0.0,1.0,85,0.00,,,0.00,VWS V14.01,2013-09-12 14:11:00,
2013-09-12 09:16:00,76.6,71.4,29.87,WNW,286,3.0,3.0,84,0.00,,,0.00,VWS V14.01,2013-09-12 14:16:00,
2013-09-12 09:21:00,77.2,71.6,29.88,NW,311,3.0,3.0,83,0.00,,,0.00,VWS V14.01,2013-09-12 14:21:00,
2013-09-12 09:26:00,77.9,72.7,29.88,WNW,300,0.0,5.0,84,0.00,,,0.00,VWS V14.01,2013-09-12 14:26:00,
2013-09-12 09:30:00,78.2,73.0,29.88,WNW,303,0.0,5.0,84,0.00,,CLR,0.00,VWS V14.01,2013-09-12 14:30:00,
2013-09-12 09:31:00,78.4,72.8,29.88,WNW,303,0.0,0.0,83,0.00,,,0.00,VWS V14.01,2013-09-12 14:31:00,
2013-09-12 09:36:00,78.7,72.4,29.87,WNW,297,0.0,0.0,81,0.00,,,0.00,VWS V14.01,2013-09-12 14:36:00,
2013-09-12 09:41:00,79.0,72.7,29.88,NW,325,2.0,2.0,81,0.00,,,0.00,VWS V14.01,2013-09-12 14:41:00,
2013-09-12 09:46:00,79.4,72.7,29.88,NW,304,0.0,2.0,80,0.00,,,0.00,VWS V14.01,2013-09-12 14:46:00,
2013-09-12 09:52:00,79.7,73.0,29.88,WNW,303,0.0,2.0,80,0.00,,,0.00,VWS V14.01,2013-09-12 14:52:00,
2013-09-12 09:57:00,80.1,73.0,29.88,WSW,258,0.0,4.0,79,0.00,,,0.00,VWS V14.01,2013-09-12 14:57:00,
2013-09-12 10:00:00,80.3,73.2,29.88,NW,324,1.0,4.0,79,0.00,,CLR,0.00,VWS V14.01,2013-09-12 15:00:00,
2013-09-12 10:02:00,80.6,73.1,29.88,NW,326,2.0,2.0,78,0.00,,,0.00,VWS V14.01,2013-09-12 15:02:00,
2013-09-12 10:07:00,81.2,73.7,29.88,NNW,328,2.0,3.0,78,0.00,,,0.00,VWS V14.01,2013-09-12 15:07:00,
2013-09-12 10:12:00,81.7,73.4,29.88,WNW,292,0.0,4.0,76,0.00,,,0.00,VWS V14.01,2013-09-12 15:12:00,
2013-09-12 10:17:00,82.0,72.9,29.88,WNW,287,0.0,7.0,74,0.00,,,0.00,VWS V14.01,2013-09-12 15:17:00,
2013-09-12 10:22:00,82.5,72.2,29.88,North,355,1.0,7.0,71,0.00,,,0.00,VWS V14.01,2013-09-12 15:22:00,
2013-09-12 10:27:00,82.9,72.5,29.88,West,281,1.0,7.0,71,0.00,,,0.00,VWS V14.01,2013-09-12 15:27:00,
2013-09-12 10:30:00,83.0,72.2,29.87,NW,309,0.0,7.0,70,0.00,,CLR,0.00,VWS V14.01,2013-09-12 15:30:00,
2013-09-12 10:32:00,83.2,73.2,29.87,WNW,297,2.0,4.0,72,0.00,,,0.00,VWS V14.01,2013-09-12 15:32:00,
2013-09-12 10:37:00,83.5,72.7,29.87,WNW,301,0.0,6.0,70,0.00,,,0.00,VWS V14.01,2013-09-12 15:37:00,
2013-09-12 10:42:00,83.8,73.0,29.87,NNE,15,0.0,6.0,70,0.00,,,0.00,VWS V14.01,2013-09-12 15:42:00,
2013-09-12 10:47:00,84.2,72.9,29.87,West,277,0.0,6.0,69,0.00,,,0.00,VWS V14.01,2013-09-12 15:47:00,
2013-09-12 10:52:00,84.5,72.8,29.87,NW,308,8.0,8.0,68,0.00,,,0.00,VWS V14.01,2013-09-12 15:52:00,
2013-09-12 10:58:00,84.7,73.8,29.87,WNW,299,2.0,8.0,70,0.00,,,0.00,VWS V14.01,2013-09-12 15:58:00,
2013-09-12 11:00:00,84.8,73.5,29.87,West,279,0.0,8.0,69,0.00,,CLR,0.00,VWS V14.01,2013-09-12 16:00:00,
2013-09-12 11:03:00,85.2,73.9,29.87,West,277,0.0,4.0,69,0.00,,,0.00,VWS V14.01,2013-09-12 16:03:00,
2013-09-12 11:08:00,85.7,74.4,29.87,NW,311,0.0,4.0,69,0.00,,,0.00,VWS V14.01,2013-09-12 16:08:00,
2013-09-12 11:13:00,85.9,72.8,29.87,NNW,345,0.0,5.0,65,0.00,,,0.00,VWS V14.01,2013-09-12 16:13:00,
2013-09-12 11:18:00,86.3,73.2,29.87,WSW,243,0.0,6.0,65,0.00,,,0.00,VWS V14.01,2013-09-12 16:18:00,
2013-09-12 11:23:00,86.5,73.3,29.86,NE,34,0.0,6.0,65,0.00,,,0.00,VWS V14.01,2013-09-12 16:23:00,
2013-09-12 11:28:00,86.8,74.5,29.87,NE,39,0.0,6.0,67,0.00,,,0.00,VWS V14.01,2013-09-12 16:28:00,
2013-09-12 11:30:00,87.0,74.3,29.87,NNW,348,0.0,6.0,66,0.00,,CLR,0.00,VWS V14.01,2013-09-12 16:30:00,
2013-09-12 11:33:00,87.2,73.6,29.86,North,5,0.0,5.0,64,0.00,,,0.00,VWS V14.01,2013-09-12 16:33:00,
2013-09-12 11:38:00,87.3,72.7,29.86,West,280,0.0,5.0,62,0.00,,,0.00,VWS V14.01,2013-09-12 16:38:00,
2013-09-12 11:43:00,87.7,74.0,29.86,North,355,1.0,5.0,64,0.00,,,0.00,VWS V14.01,2013-09-12 16:43:00,
2013-09-12 11:48:00,88.2,73.6,29.86,WNW,301,0.0,5.0,62,0.00,,,0.00,VWS V14.01,2013-09-12 16:48:00,
2013-09-12 11:53:00,88.4,72.8,29.86,NE,50,0.0,5.0,60,0.00,,,0.00,VWS V14.01,2013-09-12 16:53:00,
2013-09-12 11:59:00,88.6,74.4,29.86,NW,322,2.0,5.0,63,0.00,,,0.00,VWS V14.01,2013-09-12 16:59:00,
2013-09-12 12:00:00,88.6,73.4,29.86,NE,38,2.0,5.0,61,0.00,,CLR,0.00,VWS V14.01,2013-09-12 17:00:00,
2013-09-12 12:04:00,88.7,74.5,29.86,NNE,27,0.0,3.0,63,0.00,,,0.00,VWS V14.01,2013-09-12 17:04:00,
2013-09-12 12:09:00,88.7,73.0,29.86,NNE,24,1.0,3.0,60,0.00,,,0.00,VWS V14.01,2013-09-12 17:09:00,
2013-09-12 12:14:00,88.8,73.1,29.85,NW,319,1.0,3.0,60,0.00,,,0.00,VWS V14.01,2013-09-12 17:14:00,
2013-09-12 12:19:00,89.0,73.3,29.85,NNE,22,0.0,3.0,60,0.00,,,0.00,VWS V14.01,2013-09-12 17:19:00,
2013-09-12 12:24:00,89.1,72.9,29.85,NW,321,0.0,3.0,59,0.00,,,0.00,VWS V14.01,2013-09-12 17:24:00,
2013-09-12 12:29:00,89.2,73.0,29.85,West,279,0.0,5.0,59,0.00,,,0.00,VWS V14.01,2013-09-12 17:29:00,
2013-09-12 12:30:00,89.2,73.0,29.85,West,279,0.0,5.0,59,0.00,,CLR,0.00,VWS V14.01,2013-09-12 17:30:00,
2013-09-12 12:34:00,89.1,73.9,29.85,West,279,0.0,0.0,61,0.00,,,0.00,VWS V14.01,2013-09-12 17:34:00,
2013-09-12 12:39:00,89.5,72.3,29.85,NNW,333,3.0,5.0,57,0.00,,,0.00,VWS V14.01,2013-09-12 17:39:00,
2013-09-12 12:44:00,89.6,74.4,29.84,ESE,115,0.0,5.0,61,0.00,,,0.00,VWS V14.01,2013-09-12 17:44:00,
2013-09-12 12:49:00,90.0,73.8,29.84,ESE,109,0.0,5.0,59,0.00,,,0.00,VWS V14.01,2013-09-12 17:49:00,
2013-09-12 12:54:00,90.3,74.0,29.84,WNW,294,1.0,5.0,59,0.00,,,0.00,VWS V14.01,2013-09-12 17:54:00,
2013-09-12 12:59:00,90.3,71.9,29.84,WNW,296,0.0,1.0,55,0.00,,,0.00,VWS V14.01,2013-09-12 17:59:00,
2013-09-12 13:00:00,90.3,71.9,29.84,WNW,296,1.0,5.0,55,0.00,,CLR,0.00,VWS V14.01,2013-09-12 18:00:00,
2013-09-12 13:05:00,90.4,73.1,29.84,WNW,286,0.0,3.0,57,0.00,,,0.00,VWS V14.01,2013-09-12 18:05:00,
2013-09-12 13:10:00,90.1,72.3,29.84,NE,55,0.0,4.0,56,0.00,,,0.00,VWS V14.01,2013-09-12 18:10:00,
2013-09-12 13:15:00,90.3,73.5,29.83,NNE,31,2.0,4.0,58,0.00,,,0.00,VWS V14.01,2013-09-12 18:15:00,
2013-09-12 13:20:00,90.5,73.2,29.83,NW,320,3.0,5.0,57,0.00,,,0.00,VWS V14.01,2013-09-12 18:20:00,
2013-09-12 13:25:00,90.4,72.6,29.83,NW,321,0.0,5.0,56,0.00,,,0.00,VWS V14.01,2013-09-12 18:25:00,
2013-09-12 13:30:00,90.1,71.8,29.83,NE,40,0.0,0.0,55,0.00,,,0.00,VWS V14.01,2013-09-12 18:30:00,
2013-09-12 13:35:00,89.9,73.7,29.83,WNW,288,0.0,1.0,59,0.00,,,0.00,VWS V14.01,2013-09-12 18:35:00,
2013-09-12 13:40:00,89.5,72.3,29.83,NE,55,0.0,1.0,57,0.00,,,0.00,VWS V14.01,2013-09-12 18:40:00,
2013-09-12 13:45:00,89.5,72.8,29.82,NE,53,1.0,1.0,58,0.00,,,0.00,VWS V14.01,2013-09-12 18:45:00,
2013-09-12 13:50:00,89.5,72.3,29.83,SE,139,0.0,4.0,57,0.00,,,0.00,VWS V14.01,2013-09-12 18:50:00,
2013-09-12 13:55:00,88.4,71.8,29.83,ESE,117,0.0,7.0,58,0.00,,,0.00,VWS V14.01,2013-09-12 18:55:00,
2013-09-12 14:00:00,87.5,70.4,29.82,East,88,5.0,8.0,57,0.00,,CLR,0.00,VWS V14.01,2013-09-12 19:00:00,
2013-09-12 14:01:00,87.0,69.4,29.82,ENE,57,0.0,5.0,56,0.00,,,0.00,VWS V14.01,2013-09-12 19:01:00,
2013-09-12 14:06:00,85.9,67.3,29.82,SE,140,1.0,5.0,54,0.00,,,0.00,VWS V14.01,2013-09-12 19:06:00,
2013-09-12 14:11:00,85.1,67.7,29.82,East,84,2.0,6.0,56,0.00,,,0.00,VWS V14.01,2013-09-12 19:11:00,
2013-09-12 14:16:00,84.6,67.7,29.82,SE,130,1.0,6.0,57,0.00,,,0.00,VWS V14.01,2013-09-12 19:16:00,
2013-09-12 14:21:00,84.2,71.2,29.83,NW,320,4.0,6.0,65,0.03,,,0.03,VWS V14.01,2013-09-12 19:21:00,
2013-09-12 14:26:00,81.9,70.7,29.83,South,171,0.0,6.0,69,0.10,,,0.10,VWS V14.01,2013-09-12 19:26:00,
2013-09-12 14:30:00,80.0,70.6,29.83,South,171,0.0,6.0,73,0.13,,CLR,0.13,VWS V14.01,2013-09-12 19:30:00,
2013-09-12 14:31:00,79.3,70.7,29.83,South,171,0.0,0.0,75,0.13,,,0.13,VWS V14.01,2013-09-12 19:31:00,
2013-09-12 14:36:00,77.8,71.1,29.83,South,170,0.0,0.0,80,0.14,,,0.14,VWS V14.01,2013-09-12 19:36:00,
2013-09-12 14:41:00,76.7,71.5,29.83,NNW,340,1.0,3.0,84,0.16,,,0.16,VWS V14.01,2013-09-12 19:41:00,
2013-09-12 14:46:00,76.1,71.6,29.82,NNE,22,0.0,3.0,86,0.17,,,0.17,VWS V14.01,2013-09-12 19:46:00,
2013-09-12 14:51:00,75.7,72.2,29.82,East,98,2.0,8.0,89,0.17,,,0.17,VWS V14.01,2013-09-12 19:51:00,
2013-09-12 14:56:00,75.8,73.3,29.81,ESE,109,0.0,8.0,92,0.17,,,0.17,VWS V14.01,2013-09-12 19:56:00,
2013-09-12 15:00:00,76.0,73.5,29.81,ESE,111,0.0,8.0,92,0.17,,CLR,0.17,VWS V14.01,2013-09-12 20:00:00,
2013-09-12 15:01:00,76.2,73.7,29.81,ESE,111,0.0,0.0,92,0.17,,,0.17,VWS V14.01,2013-09-12 20:01:00,
2013-09-12 15:07:00,76.6,73.1,29.80,SSE,154,0.0,2.0,89,0.17,,,0.17,VWS V14.01,2013-09-12 20:07:00,
2013-09-12 15:12:00,77.3,74.1,29.80,SSE,154,0.0,2.0,90,0.17,,,0.17,VWS V14.01,2013-09-12 20:12:00,
2013-09-12 15:17:00,77.8,73.6,29.80,SSE,154,0.0,2.0,87,0.17,,,0.17,VWS V14.01,2013-09-12 20:17:00,
2013-09-12 15:22:00,78.2,73.7,29.80,SSE,154,0.0,2.0,86,0.17,,,0.17,VWS V14.01,2013-09-12 20:22:00,
2013-09-12 15:27:00,78.2,74.0,29.80,WNW,300,2.0,2.0,87,0.17,,,0.17,VWS V14.01,2013-09-12 20:27:00,
2013-09-12 15:30:00,78.2,73.7,29.80,WNW,302,6.0,9.0,86,0.17,,CLR,0.17,VWS V14.01,2013-09-12 20:30:00,
2013-09-12 15:32:00,78.2,73.3,29.80,NW,309,0.0,6.0,85,0.04,,,0.17,VWS V14.01,2013-09-12 20:32:00,
2013-09-12 15:37:00,78.0,73.5,29.80,NNW,341,0.0,6.0,86,0.04,,,0.17,VWS V14.01,2013-09-12 20:37:00,
2013-09-12 15:42:00,77.9,73.7,29.80,NNW,334,1.0,6.0,87,0.04,,,0.17,VWS V14.01,2013-09-12 20:42:00,
2013-09-12 15:47:00,77.8,74.0,29.79,NW,321,0.0,6.0,88,0.04,,,0.17,VWS V14.01,2013-09-12 20:47:00,
2013-09-12 15:52:00,77.5,73.7,29.79,NW,320,0.0,6.0,88,0.04,,,0.17,VWS V14.01,2013-09-12 20:52:00,
2013-09-12 15:57:00,77.3,73.5,29.79,NW,321,0.0,6.0,88,0.04,,,0.17,VWS V14.01,2013-09-12 20:57:00,
2013-09-12 16:00:00,77.3,73.5,29.79,NW,321,0.0,6.0,88,0.04,,CLR,0.17,VWS V14.01,2013-09-12 21:00:00,
2013-09-12 16:03:00,77.2,73.7,29.79,NW,321,0.0,0.0,89,0.00,,,0.17,VWS V14.01,2013-09-12 21:03:00,
2013-09-12 16:08:00,77.0,73.5,29.79,NW,321,0.0,0.0,89,0.00,,,0.17,VWS V14.01,2013-09-12 21:08:00,
2013-09-12 16:13:00,76.9,72.7,29.79,WSW,249,0.0,1.0,87,0.00,,,0.17,VWS V14.01,2013-09-12 21:13:00,
2013-09-12 16:18:00,76.8,73.0,29.79,WSW,250,0.0,1.0,88,0.00,,,0.17,VWS V14.01,2013-09-12 21:18:00,
2013-09-12 16:23:00,76.7,72.2,29.79,NW,319,0.0,2.0,86,0.00,,,0.17,VWS V14.01,2013-09-12 21:23:00,
2013-09-12 16:28:00,76.5,72.0,29.78,NW,323,0.0,2.0,86,0.00,,,0.17,VWS V14.01,2013-09-12 21:28:00,
2013-09-12 16:30:00,76.5,72.0,29.78,NW,323,0.0,2.0,86,0.00,,CLR,0.17,VWS V14.01,2013-09-12 21:30:00,
2013-09-12 16:33:00,76.2,72.1,29.78,NW,323,0.0,0.0,87,0.00,,,0.17,VWS V14.01,2013-09-12 21:33:00,
2013-09-12 16:38:00,76.1,71.3,29.77,NNW,329,0.0,1.0,85,0.00,,,0.17,VWS V14.01,2013-09-12 21:38:00,
2013-09-12 16:43:00,76.0,71.9,29.77,NNW,329,0.0,1.0,87,0.00,,,0.17,VWS V14.01,2013-09-12 21:43:00,
2013-09-12 16:48:00,75.9,71.8,29.77,NNW,329,0.0,1.0,87,0.00,,,0.17,VWS V14.01,2013-09-12 21:48:00,
2013-09-12 16:53:00,76.2,72.1,29.77,NW,309,0.0,4.0,87,0.00,,,0.17,VWS V14.01,2013-09-12 21:53:00,
2013-09-12 16:58:00,76.6,71.8,29.77,WNW,287,1.0,4.0,85,0.00,,,0.17,VWS V14.01,2013-09-12 21:58:00,
2013-09-12 17:00:00,76.7,71.9,29.77,WNW,288,0.0,4.0,85,0.00,,CLR,0.17,VWS V14.01,2013-09-12 22:00:00,
2013-09-12 17:03:00,76.9,72.4,29.77,NW,317,2.0,2.0,86,0.00,,,0.17,VWS V14.01,2013-09-12 22:03:00,
2013-09-12 17:09:00,77.2,72.0,29.77,NW,321,1.0,4.0,84,0.00,,,0.17,VWS V14.01,2013-09-12 22:09:00,
2013-09-12 17:14:00,77.3,71.7,29.77,NNW,344,0.0,4.0,83,0.00,,,0.17,VWS V14.01,2013-09-12 22:14:00,
2013-09-12 17:19:00,77.3,71.4,29.77,NNW,338,0.0,4.0,82,0.00,,,0.17,VWS V14.01,2013-09-12 22:19:00,
2013-09-12 17:24:00,77.5,72.6,29.77,NW,323,0.0,4.0,85,0.00,,,0.17,VWS V14.01,2013-09-12 22:24:00,
2013-09-12 17:29:00,77.5,72.3,29.77,NW,323,0.0,4.0,84,0.00,,,0.17,VWS V14.01,2013-09-12 22:29:00,
2013-09-12 17:30:00,77.5,72.3,29.77,NW,323,0.0,4.0,84,0.00,,CLR,0.17,VWS V14.01,2013-09-12 22:30:00,
2013-09-12 17:34:00,77.7,72.1,29.77,NW,325,0.0,0.0,83,0.00,,,0.17,VWS V14.01,2013-09-12 22:34:00,
2013-09-12 17:39:00,77.8,71.9,29.77,NW,325,0.0,1.0,82,0.00,,,0.17,VWS V14.01,2013-09-12 22:39:00,
2013-09-12 17:44:00,78.4,71.7,29.77,NNW,341,1.0,5.0,80,0.00,,,0.17,VWS V14.01,2013-09-12 22:44:00,
2013-09-12 17:49:00,78.7,71.3,29.77,WNW,302,3.0,5.0,78,0.00,,,0.17,VWS V14.01,2013-09-12 22:49:00,
2013-09-12 17:54:00,78.8,71.4,29.77,NW,319,0.0,5.0,78,0.00,,,0.17,VWS V14.01,2013-09-12 22:54:00,
2013-09-12 17:59:00,78.9,72.2,29.77,NW,312,2.0,2.0,80,0.00,,,0.17,VWS V14.01,2013-09-12 22:59:00,
2013-09-12 18:00:00,78.9,72.2,29.77,West,265,0.0,5.0,80,0.00,,RA,0.17,VWS V14.01,2013-09-12 23:00:00,
2013-09-12 18:04:00,78.9,71.8,29.77,NW,312,0.0,2.0,79,0.00,,,0.17,VWS V14.01,2013-09-12 23:04:00,
2013-09-12 18:10:00,78.9,72.2,29.77,NW,315,0.0,2.0,80,0.00,,,0.17,VWS V14.01,2013-09-12 23:10:00,
2013-09-12 18:15:00,78.8,72.1,29.78,NW,315,0.0,2.0,80,0.00,,,0.17,VWS V14.01,2013-09-12 23:15:00,
2013-09-12 18:20:00,78.8,72.1,29.78,NW,314,0.0,2.0,80,0.00,,,0.17,VWS V14.01,2013-09-12 23:20:00,
2013-09-12 18:25:00,78.8,72.1,29.78,NW,305,0.0,2.0,80,0.00,,,0.17,VWS V14.01,2013-09-12 23:25:00,
2013-09-12 18:30:00,78.7,71.6,29.78,NW,305,0.0,0.0,79,0.00,,,0.17,VWS V14.01,2013-09-12 23:30:00,
2013-09-12 18:35:00,78.6,71.2,29.78,NW,306,0.0,2.0,78,0.00,,,0.17,VWS V14.01,2013-09-12 23:35:00,
2013-09-12 18:40:00,78.5,71.4,29.78,NW,306,0.0,2.0,79,0.00,,,0.17,VWS V14.01,2013-09-12 23:40:00,
2013-09-12 18:45:00,78.4,71.3,29.78,NW,304,0.0,2.0,79,0.00,,,0.17,VWS V14.01,2013-09-12 23:45:00,
2013-09-12 18:50:00,78.2,71.5,29.78,NW,321,0.0,2.0,80,0.00,,,0.17,VWS V14.01,2013-09-12 23:50:00,
2013-09-12 18:55:00,78.0,71.7,29.79,NW,315,0.0,2.0,81,0.00,,,0.17,VWS V14.01,2013-09-12 23:55:00,
2013-09-12 19:00:00,77.8,71.9,29.79,NW,315,0.0,1.0,82,0.00,,,0.17,VWS V14.01,2013-09-13 00:00:00,
2013-09-12 19:05:00,77.7,72.1,29.79,NW,315,0.0,1.0,83,0.00,,,0.17,VWS V14.01,2013-09-13 00:05:00,
2013-09-12 19:11:00,77.4,71.8,29.79,NW,315,0.0,1.0,83,0.00,,,0.17,VWS V14.01,2013-09-13 00:11:00,
2013-09-12 19:16:00,77.2,72.0,29.79,NW,315,0.0,1.0,84,0.00,,,0.17,VWS V14.01,2013-09-13 00:16:00,
2013-09-12 19:21:00,76.9,71.7,29.79,NW,315,0.0,1.0,84,0.00,,,0.17,VWS V14.01,2013-09-13 00:21:00,
2013-09-12 19:26:00,76.6,71.4,29.80,NW,315,0.0,1.0,84,0.00,,,0.17,VWS V14.01,2013-09-13 00:26:00,
2013-09-12 19:30:00,76.5,71.3,29.80,NW,315,0.0,1.0,84,0.00,,CLR,0.17,VWS V14.01,2013-09-13 00:30:00,
2013-09-12 19:31:00,76.4,71.2,29.80,NW,315,0.0,0.0,84,0.00,,,0.17,VWS V14.01,2013-09-13 00:31:00,
2013-09-12 19:36:00,76.2,71.0,29.80,NW,315,0.0,1.0,84,0.00,,,0.17,VWS V14.01,2013-09-13 00:36:00,
2013-09-12 19:41:00,76.1,71.3,29.80,NW,325,0.0,1.0,85,0.00,,,0.17,VWS V14.01,2013-09-13 00:41:00,
2013-09-12 19:46:00,75.9,71.1,29.80,NNW,338,0.0,1.0,85,0.00,,,0.17,VWS V14.01,2013-09-13 00:46:00,
2013-09-12 19:51:00,75.7,70.2,29.80,NW,312,0.0,2.0,83,0.00,,,0.17,VWS V14.01,2013-09-13 00:51:00,
2013-09-12 19:56:00,75.6,70.1,29.80,North,355,0.0,2.0,83,0.00,,,0.17,VWS V14.01,2013-09-13 00:56:00,
2013-09-12 20:00:00,75.6,70.4,29.80,North,355,0.0,2.0,84,0.00,,CLR,0.17,VWS V14.01,2013-09-13 01:00:00,
2013-09-12 20:01:00,75.5,70.3,29.80,North,360,0.0,0.0,84,0.00,,,0.17,VWS V14.01,2013-09-13 01:01:00,
2013-09-12 20:06:00,75.4,69.9,29.81,WNW,284,0.0,1.0,83,0.00,,,0.17,VWS V14.01,2013-09-13 01:06:00,
2013-09-12 20:12:00,75.3,70.1,29.81,ENE,67,0.0,2.0,84,0.00,,,0.17,VWS V14.01,2013-09-13 01:12:00,
2013-09-12 20:17:00,75.1,69.9,29.81,ESE,105,0.0,2.0,84,0.00,,,0.17,VWS V14.01,2013-09-13 01:17:00,
2013-09-12 20:22:00,75.1,70.3,29.81,ESE,117,1.0,3.0,85,0.00,,,0.17,VWS V14.01,2013-09-13 01:22:00,
2013-09-12 20:27:00,75.2,70.0,29.81,East,83,2.0,3.0,84,0.00,,,0.17,VWS V14.01,2013-09-13 01:27:00,
2013-09-12 20:30:00,75.2,70.0,29.81,ESE,105,0.0,3.0,84,0.00,,CLR,0.17,VWS V14.01,2013-09-13 01:30:00,
2013-09-12 20:32:00,75.3,70.1,29.81,SE,129,0.0,1.0,84,0.00,,,0.17,VWS V14.01,2013-09-13 01:32:00,
2013-09-12 20:37:00,75.3,70.1,29.82,ESE,105,0.0,1.0,84,0.00,,,0.17,VWS V14.01,2013-09-13 01:37:00,
2013-09-12 20:42:00,75.3,70.5,29.82,East,99,0.0,2.0,85,0.00,,,0.17,VWS V14.01,2013-09-13 01:42:00,
2013-09-12 20:47:00,75.1,70.3,29.82,East,101,0.0,2.0,85,0.00,,,0.17,VWS V14.01,2013-09-13 01:47:00,
2013-09-12 20:52:00,75.0,69.8,29.82,East,101,0.0,2.0,84,0.00,,,0.17,VWS V14.01,2013-09-13 01:52:00,
2013-09-12 20:57:00,74.9,70.1,29.82,East,88,0.0,2.0,85,0.00,,,0.17,VWS V14.01,2013-09-13 01:57:00,
2013-09-12 21:00:00,74.9,69.7,29.82,ENE,75,0.0,2.0,84,0.00,,CLR,0.17,VWS V14.01,2013-09-13 02:00:00,
2013-09-12 21:03:00,74.8,70.0,29.82,SE,125,0.0,1.0,85,0.00,,,0.17,VWS V14.01,2013-09-13 02:03:00,
2013-09-12 21:08:00,74.8,70.0,29.82,ENE,62,1.0,3.0,85,0.00,,,0.17,VWS V14.01,2013-09-13 02:08:00,
2013-09-12 21:13:00,74.9,70.1,29.82,ESE,119,0.0,3.0,85,0.00,,,0.17,VWS V14.01,2013-09-13 02:13:00,
2013-09-12 21:18:00,74.8,70.0,29.82,SE,142,0.0,3.0,85,0.00,,,0.17,VWS V14.01,2013-09-13 02:18:00,
2013-09-12 21:23:00,74.8,69.7,29.82,ENE,71,0.0,3.0,84,0.00,,,0.17,VWS V14.01,2013-09-13 02:23:00,
2013-09-12 21:28:00,74.8,69.7,29.82,ENE,62,0.0,3.0,84,0.00,,,0.17,VWS V14.01,2013-09-13 02:28:00,
2013-09-12 21:30:00,74.8,69.7,29.82,ENE,62,0.0,3.0,84,0.00,,CLR,0.17,VWS V14.01,2013-09-13 02:30:00,
2013-09-12 21:33:00,74.7,69.9,29.82,ENE,62,0.0,0.0,85,0.00,,,0.17,VWS V14.01,2013-09-13 02:33:00,
2013-09-12 21:38:00,74.5,69.7,29.82,ENE,62,0.0,0.0,85,0.00,,,0.17,VWS V14.01,2013-09-13 02:38:00,
2013-09-12 21:43:00,74.4,69.9,29.82,ENE,62,0.0,0.0,86,0.00,,,0.17,VWS V14.01,2013-09-13 02:43:00,
2013-09-12 21:49:00,74.2,69.8,29.82,ENE,62,0.0,0.0,86,0.00,,,0.17,VWS V14.01,2013-09-13 02:49:00,
2013-09-12 21:54:00,74.0,69.6,29.83,ENE,62,0.0,0.0,86,0.00,,,0.17,VWS V14.01,2013-09-13 02:54:00,
2013-09-12 21:59:00,73.8,69.3,29.83,ENE,62,0.0,0.0,86,0.00,,,0.17,VWS V14.01,2013-09-13 02:59:00,
2013-09-12 22:00:00,73.8,69.3,29.83,ENE,62,0.0,0.0,86,0.00,,CLR,0.17,VWS V14.01,2013-09-13 03:00:00,
2013-09-12 22:04:00,73.7,69.3,29.83,ENE,62,0.0,0.0,86,0.00,,,0.17,VWS V14.01,2013-09-13 03:04:00,
2013-09-12 22:09:00,73.7,69.3,29.83,ENE,62,0.0,0.0,86,0.00,,,0.17,VWS V14.01,2013-09-13 03:09:00,
2013-09-12 22:14:00,73.7,69.6,29.82,ENE,61,0.0,0.0,87,0.00,,,0.17,VWS V14.01,2013-09-13 03:14:00,
2013-09-12 22:19:00,73.6,69.5,29.82,NW,321,0.0,1.0,87,0.00,,,0.17,VWS V14.01,2013-09-13 03:19:00,
2013-09-12 22:24:00,73.6,69.8,29.82,NW,319,0.0,1.0,88,0.00,,,0.17,VWS V14.01,2013-09-13 03:24:00,
2013-09-12 22:29:00,73.5,69.7,29.82,NW,317,0.0,0.0,88,0.00,,,0.17,VWS V14.01,2013-09-13 03:29:00,
2013-09-12 22:30:00,73.5,69.7,29.82,NW,317,0.0,1.0,88,0.00,,CLR,0.17,VWS V14.01,2013-09-13 03:30:00,
2013-09-12 22:35:00,73.5,69.7,29.83,NW,317,0.0,0.0,88,0.00,,,0.17,VWS V14.01,2013-09-13 03:35:00,
2013-09-12 22:40:00,73.5,70.1,29.83,NW,309,0.0,1.0,89,0.00,,,0.17,VWS V14.01,2013-09-13 03:40:00,
2013-09-12 22:45:00,73.4,70.0,29.83,NW,309,0.0,2.0,89,0.00,,,0.17,VWS V14.01,2013-09-13 03:45:00,
2013-09-12 22:50:00,73.4,69.6,29.83,NW,309,0.0,2.0,88,0.00,,,0.17,VWS V14.01,2013-09-13 03:50:00,
2013-09-12 22:55:00,73.4,69.6,29.82,NW,309,0.0,2.0,88,0.00,,,0.17,VWS V14.01,2013-09-13 03:55:00,
2013-09-12 23:00:00,73.4,70.0,29.83,NW,309,0.0,0.0,89,0.00,,,0.17,VWS V14.01,2013-09-13 04:00:00,
2013-09-12 23:01:00,73.4,70.0,29.83,NW,309,0.0,0.0,89,0.00,,,0.17,VWS V14.01,2013-09-13 04:01:00,
2013-09-12 23:02:00,73.4,70.0,29.83,NW,309,0.0,0.0,89,0.00,,,0.17,VWS V14.01,2013-09-13 04:02:00,
2013-09-12 23:07:00,73.3,69.9,29.82,NW,309,0.0,0.0,89,0.00,,,0.17,VWS V14.01,2013-09-13 04:07:00,
2013-09-12 23:11:00,73.3,69.9,29.82,NW,309,0.0,0.0,89,0.00,,,0.17,VWS V14.01,2013-09-13 04:11:00,
2013-09-12 23:16:00,73.2,69.8,29.82,NW,309,0.0,0.0,89,0.00,,,0.17,VWS V14.01,2013-09-13 04:16:00,
2013-09-12 23:21:00,73.2,69.8,29.82,NW,309,0.0,0.0,89,0.00,,,0.17,VWS V14.01,2013-09-13 04:21:00,
2013-09-12 23:26:00,73.2,69.8,29.83,NW,313,0.0,1.0,89,0.00,,,0.17,VWS V14.01,2013-09-13 04:26:00,
2013-09-12 23:30:00,73.1,69.7,29.83,NW,326,0.0,1.0,89,0.00,,CLR,0.17,VWS V14.01,2013-09-13 04:30:00,
2013-09-12 23:31:00,73.1,70.0,29.83,NW,326,0.0,0.0,90,0.00,,,0.17,VWS V14.01,2013-09-13 04:31:00,
2013-09-12 23:36:00,73.1,70.0,29.82,NW,325,0.0,1.0,90,0.00,,,0.17,VWS V14.01,2013-09-13 04:36:00,
2013-09-12 23:42:00,73.1,69.7,29.82,NW,316,0.0,1.0,89,0.00,,,0.17,VWS V14.01,2013-09-13 04:42:00,
2013-09-12 23:47:00,73.1,69.7,29.82,NW,311,0.0,2.0,89,0.00,,,0.17,VWS V14.01,2013-09-13 04:47:00,
2013-09-12 23:52:00,73.1,69.3,29.82,NW,311,0.0,2.0,88,0.00,,,0.17,VWS V14.01,2013-09-13 04:52:00,
2013-09-12 23:57:00,73.1,69.3,29.82,NW,305,0.0,2.0,88,0.00,,,0.17,VWS V14.01,2013-09-13 04:57:00,